Terug naar catalogus

FENGYUN 1C DEB

ActiefSSO
NORAD 31732·DEBRIS·🇨🇳 China

Gelanceerd May 10, 1999 vanaf Taiyuan Satellite Launch Center

Loading…

Volgende Passages (komende 24 uur)

TLE

VersSource: Space-Track

Epoch: Sep 12, 2026, 12:46 UTC

1 31732U 99025CEF 26255.53263135  .00000311  00000-0  18889-3 0  9991
2 31732  98.5463 283.0267 0040281 181.9080 178.1946 14.12544168681954

Volg FENGYUN 1C DEB in realtime met AllMySat

Download on the App Store